Погода в Савинках

Россия / Липецкая область     52°59′04″N   38°59′57″E
темп.,
°C
ветер,
м/с
пор.,
м/с
влажн.,
%
обл.,
%
осадки,
мм/ч
давл.,
гПа
погр.,
м
25 мая, ср
ср2500:00+4с339092 0.0 101258
03:00+3ссз348968 0.0 101481
06:00+4с35825 0.0 1014217
09:00+8с346183 0.0 10151084
12:00+11сз355179 0.0 10151740
15:00+12сз4548100 0.0 10151923
18:00+12з3461100 0.0 10151257
21:00+8з337390 0.0 101645
26 мая, чт
чт2600:00+8юз35765 0.0 1016101
03:00+7юз3680100 0.0 1015153
06:00+8юз37875 0.0 1014186
09:00+15юз4667100 0.0 1012542
12:00+17юз6967100 1.7 1010881
15:00+14юз101378100 2.3 1009937
18:00+11ю101894100 4.9 10051196
21:00+11зюз91589100 7.1 10021061
27 мая, пт
пт2700:00+11зюз11188675 0.8 1001915
03:00+10з9178713 0.8 1003791
06:00+10зюз7149377 0.0 1002599
09:00+11зсз71391100 1.4 1003840
12:00+12зсз8128198 1.4 10051303
15:00+12з8127721 1.6 10071214
18:00+14з812725 0.1 10071312
21:00+10юз41179100 0.1 1008252
28 мая, сб
сб2800:00+11ююз51283100 0.0 1006336
03:00+12ююз71694100 3.2 1002821
06:00+11юз6159196 8.8 1003835
09:00+13з7117938 9.2 10041094
12:00+15з811586 0.3 10061695
15:00+16зюз8115525 0.3 10082193
18:00+14зюз71272100 0.2 10091211
21:00+9юз488884 0.3 1011142
29 мая, вс
вс2900:00+9юз4886100 0.0 1012166
03:00+9юз358398 0.0 101393
06:00+10ююз3887100 0.1 1014262
09:00+14юз687398 1.3 1014930
12:00+17зюз785796 0.3 10151838
15:00+18зюз57505 0.3 10161943
18:00+17зюз356294 0.0 10171059
21:00+12юз117696 0.0 101810